Wetbulb
65.79 63.52 58.65 56.68 49.06 48.55 44.51 45.72 48.44 48.88 49.09 52.54 53.21 52.17 52.67 54.08 53.84 52.40 69.09 70.94 69.25 71.29 75.53 76.86 76.87 77.03 76.75 76.37 76.55 76.47 76.57 76.79 76.92 76.84 76.68 76.59 76.46 76.34 75.93 75.61 75.31 74.44 73.42 72.26 71.31 70.37 69.22 68.09 67.20
64.46 61.44 58.13 53.08 45.69 42.18 43.52 46.97 47.55 49.82 51.79 53.22 53.55 52.83 52.92 52.92 56.45 59.60 65.84 70.16 69.28 73.00 76.73 76.01 76.62 76.87 76.75 76.12 75.82 75.72 75.92 76.09 76.24 76.16 76.14 75.99 75.71 75.56 75.31 74.92 74.40 73.39 72.40 71.59 70.48 69.38 68.44 68.00 67.84
62.74 61.86 56.13 51.09 45.24 41.01 43.35 46.50 49.54 51.00 51.86 51.32 52.32 55.17 54.22 56.46 64.47 61.76 69.51 68.85 69.36 72.60 75.44 76.51 76.83 76.65 76.75 76.37 75.67 75.29 75.39 75.57 75.49 75.62 75.62 75.32 75.14 74.79 74.74 74.37 74.00 72.97 71.83 70.81 69.90 69.33 69.01 68.72 68.58
60.45 60.13 54.52 47.85 43.37 44.29 46.09 49.28 51.22 50.29 51.92 52.89 53.63 54.22 57.77 66.09 64.13 69.93 70.37 68.80 69.51 72.37 73.76 76.11 76.57 76.35 76.40 76.45 75.72 75.37 75.34 75.37 75.29 75.17 75.22 74.89 74.72 74.47 74.14 73.97 73.67 73.01 71.75 70.62 70.29 70.33 70.12 69.33 68.99
60.33 57.05 49.19 46.10 44.59 46.26 47.77 50.24 50.83 49.98 51.72 53.22 55.59 54.93 55.88 62.69 68.75 69.52 69.58 68.43 69.01 71.38 73.22 75.86 76.42 76.52 76.40 76.32 75.92 75.59 75.49 75.21 75.16 75.09 75.09 74.89 74.49 74.14 73.97 73.80 73.45 72.80 72.27 71.70 70.95 70.77 70.82 70.55 69.38
54.63 55.21 46.83 44.17 45.79 46.72 49.64 51.50 51.60 51.87 54.49 55.84 55.84 55.52 56.93 63.00 68.04 67.95 68.60 68.26 69.57 71.01 72.56 74.51 76.50 76.39 76.07 75.84 75.64 75.48 75.18 75.06 75.03 75.03 74.93 74.81 74.36 74.09 73.77 73.55 73.15 72.79 72.52 71.99 71.24 70.95 71.09 70.95 70.63
53.27 50.41 46.11 46.74 45.49 47.44 50.14 55.25 54.13 54.00 54.68 54.67 57.40 54.27 57.57 61.39 67.48 67.32 67.17 68.15 69.82 71.17 72.12 74.14 75.24 76.50 76.29 75.64 75.39 75.28 75.20 74.77 74.82 74.64 74.54 74.50 74.35 73.93 73.66 73.19 72.98 72.75 72.52 71.87 71.42 71.42 71.30 70.95 70.34
56.23 53.00 47.30 47.11 45.24 46.15 52.53 54.44 56.13 54.60 54.14 57.92 57.66 53.74 54.14 61.20 67.33 67.42 67.35 67.85 69.08 70.35 70.60 72.83 74.19 75.24 75.49 75.66 75.55 75.40 75.21 75.03 74.70 74.70 74.65 74.53 74.39 74.00 73.53 72.55 72.45 72.76 72.53 72.09 71.72 71.54 71.52 71.05 70.73
54.16 48.84 45.79 47.23 46.62 48.75 53.94 52.23 55.46 56.62 54.51 55.53 56.37 56.39 57.26 64.71 67.17 67.06 66.41 66.45 67.10 68.36 70.70 72.57 73.79 74.62 74.91 74.58 74.98 75.46 75.40 75.25 74.86 74.95 74.64 74.03 73.60 73.68 73.43 72.03 72.11 72.43 72.51 72.11 71.89 71.74 71.61 71.12 69.99
50.16 46.42 46.66 51.28 52.12 51.50 52.72 51.58 52.98 52.05 52.51 52.99 54.50 56.60 57.62 58.03 62.82 65.83 65.85 65.29 65.56 66.40 68.71 71.42 73.38 73.69 74.47 73.74 74.84 74.92 74.81 74.81 75.05 74.95 75.18 74.56 74.45 74.29 72.85 72.54 71.71 72.38 72.48 72.18 72.03 71.95 71.82 70.75 69.34
47.21 44.80 48.93 50.41 49.75 50.42 50.10 51.20 51.44 50.53 49.52 52.55 51.46 53.40 55.20 57.19 59.04 63.22 66.01 66.29 66.14 66.63 67.66 69.34 72.24 73.65 73.40 72.95 73.96 74.20 74.39 74.42 74.41 74.66 74.26 74.60 73.57 73.54 73.32 72.55 72.16 71.51 71.45 69.57 70.21 69.84 69.29 69.32 69.57
43.47 46.02 47.15 49.66 48.56 46.97 47.08 49.29 47.85 49.37 50.32 52.73 53.05 54.26 55.14 55.40 57.66 58.69 62.45 66.46 66.13 66.37 67.15 68.96 70.22 72.06 72.91 72.50 72.61 73.18 73.14 73.74 72.97 72.86 73.42 73.00 71.15 72.40 72.55 71.67 71.66 71.82 70.55 70.13 69.51 68.71 69.07 69.36 69.22
43.66 44.13 45.28 46.40 46.28 46.32 46.24 46.78 48.32 47.86 50.28 51.58 53.30 53.28 53.25 54.41 56.32 58.58 60.47 66.56 67.49 66.67 67.14 67.89 69.58 70.46 71.88 71.88 71.49 72.17 72.20 72.87 72.44 72.51 73.04 72.89 71.75 71.64 71.74 71.58 71.05 70.57 70.23 69.46 68.98 68.32 68.47 68.26 68.58
44.29 44.44 44.98 45.60 46.09 46.57 44.33 45.45 46.61 48.28 50.28 50.22 51.47 52.61 53.70 54.65 55.76 57.90 60.23 63.85 66.65 67.84 67.37 68.06 69.01 71.22 71.16 70.58 70.82 71.37 71.89 72.14 72.10 71.64 71.67 72.72 71.96 71.42 70.48 70.65 70.15 69.66 69.44 68.87 68.51 67.97 67.63 67.16 67.35
44.08 41.46 43.09 44.02 44.47 44.11 45.76 41.50 43.10 47.39 48.84 48.85 49.93 51.00 52.02 52.73 54.00 54.60 57.37 61.17 65.67 67.88 68.42 68.99 69.55 70.47 71.47 71.51 69.53 70.38 69.73 70.23 70.18 70.49 71.42 70.66 71.29 70.90 70.44 69.39 68.66 68.68 68.99 69.26 68.80 68.13 68.03 66.87 66.77
41.24 40.43 37.93 42.36 43.03 43.96 44.10 38.55 44.21 46.72 46.84 46.77 48.75 49.68 50.67 52.39 53.65 55.39 56.62 58.51 60.73 65.22 67.61 70.39 69.32 68.99 70.51 70.60 69.97 68.78 69.50 68.99 68.78 69.28 69.53 69.79 69.78 69.63 68.69 68.10 67.39 68.18 68.15 67.48 67.21 66.92 66.01 65.82 66.04
39.73 36.93 36.94 39.09 43.82 43.74 42.73 39.77 44.43 46.81 46.08 46.05 47.44 48.89 49.78 51.38 53.82 56.38 56.69 57.67 59.72 62.92 67.73 70.38 70.07 67.91 69.93 68.99 68.93 68.48 70.19 68.70 69.22 68.86 68.70 68.77 68.95 69.18 67.60 67.00 66.97 68.44 67.32 66.62 66.70 66.57 66.14 65.85 65.88
34.86 35.58 36.84 36.83 41.09 43.21 41.46 41.21 43.96 45.74 45.40 45.46 46.35 47.35 49.10 50.28 52.40 54.92 56.11 57.25 58.56 60.47 63.46 68.28 71.31 71.37 70.09 67.36 67.01 67.48 68.04 69.06 68.84 69.22 68.41 66.83 68.22 67.97 67.63 66.78 67.85 68.01 66.81 66.25 66.95 67.15 67.24 66.89 66.54
38.75 37.17 36.24 39.18 41.86 40.87 40.64 40.79 42.64 44.95 45.07 45.38 46.17 46.48 48.02 49.82 52.52 53.84 55.13 56.59 56.96 59.08 59.75 61.50 66.54 72.98 72.20 69.97 67.44 66.15 65.10 67.05 67.81 68.56 70.20 66.83 68.19 68.87 68.19 67.13 65.27 66.69 66.57 68.35 68.33 67.77 67.27 66.59 67.21
38.40 36.64 36.38 39.77 41.82 40.64 40.05 39.36 42.43 44.17 44.86 46.02 46.72 47.16 47.81 48.58 49.80 51.87 54.03 56.03 57.70 57.39 59.33 59.79 61.08 65.53 70.61 71.61 71.57 70.87 69.99 68.79 69.44 69.94 71.73 71.33 69.87 69.28 68.76 68.14 67.60 67.58 67.91 68.77 68.60 67.93 67.16 67.32 67.71
38.33 36.86 36.61 36.01 39.44 40.88 39.41 37.39 39.17 42.67 44.61 45.86 47.05 48.02 48.38 48.26 48.00 50.21 52.66 54.97 56.40 57.27 58.13 58.90 60.02 60.91 64.65 69.67 70.98 71.33 70.99 71.11 69.62 70.49 71.15 70.97 70.38 70.22 69.91 70.60 69.68 68.93 69.66 68.87 69.01 68.55 68.25 67.44 67.38
35.18 40.92 38.72 37.16 35.84 31.85 38.77 30.51 37.51 40.43 42.01 43.71 45.21 47.12 47.82 49.02 49.65 51.12 51.94 53.14 54.28 55.49 56.73 58.13 59.61 60.44 60.66 64.96 67.38 70.78 69.23 68.85 70.96 71.24 72.04 72.31 71.26 70.78 71.19 71.40 70.89 70.34 69.76 70.63 69.86 69.54 69.13 68.65 67.22
37.02 41.15 38.82 38.00 36.05 34.57 35.08 32.47 36.66 39.96 39.59 41.56 44.91 46.80 48.70 50.22 51.04 51.21 51.86 51.87 53.35 54.89 55.21 57.06 58.87 60.15 61.66 61.97 65.39 66.31 69.57 70.51 71.77 71.25 73.26 74.05 72.33 72.28 71.79 72.61 71.62 70.67 70.60 70.92 70.61 69.52 68.82 68.58 67.69
41.13 38.86 37.49 36.22 35.36 29.48 33.26 32.92 34.54 37.63 39.66 41.84 44.89 47.21 48.92 49.89 50.84 51.70 52.53 53.28 53.51 54.44 54.67 56.04 57.16 59.82 61.08 61.22 62.89 64.84 66.61 68.46 68.59 69.89 69.96 70.18 70.59 71.28 72.61 72.67 72.20 72.23 71.66 71.02 70.68 70.34 69.63 68.53 68.17
39.32 36.22 30.00 28.36 28.75 28.30 34.94 32.25 35.17 40.49 42.36 43.10 43.89 46.42 49.12 50.32 50.89 51.15 51.18 51.88 52.90 54.05 55.33 55.59 55.89 57.37 59.86 59.79 60.93 63.36 65.20 66.52 68.13 69.22 68.75 69.70 68.60 69.34 72.34 72.56 72.68 71.75 71.84 71.86 71.00 69.99 69.39 68.87 68.12
37.02 36.10 30.30 21.08 25.18 28.98 34.34 29.48 36.49 41.76 44.00 45.58 46.76 48.14 49.46 49.96 50.15 50.52 51.59 51.86 52.48 53.95 55.18 55.78 55.76 56.05 57.63 59.03 59.90 62.46 65.08 65.53 67.29 68.89 67.99 67.36 67.46 70.28 73.20 72.11 72.36 72.17 71.93 71.25 70.74 69.92 69.75 69.83 69.22
35.83 33.75 36.74 30.94 31.50 28.07 32.17 35.71 40.16 42.84 43.12 44.24 45.52 46.88 47.73 48.05 49.47 50.63 51.53 51.82 52.66 54.23 55.49 55.75 55.48 55.99 57.58 58.68 59.63 61.55 63.34 66.33 67.95 71.03 71.09 69.37 69.76 70.26 71.55 71.29 71.32 71.50 71.58 71.30 70.92 70.44 70.52 70.08 69.50
39.20 40.47 31.52 33.46 23.58 22.21 30.02 31.70 33.19 38.75 40.32 42.71 43.60 45.10 46.27 47.99 49.43 50.90 51.38 51.24 52.71 55.27 55.81 56.24 56.37 55.81 56.77 58.18 59.11 60.32 62.07 65.31 67.42 69.99 69.83 70.27 70.84 70.40 70.35 70.79 71.48 71.59 71.74 71.79 71.97 71.50 71.57 70.24 68.18
35.61 34.50 35.02 34.23 32.44 26.11 25.15 31.33 40.35 40.04 42.02 42.14 43.96 45.33 46.02 47.48 49.01 50.06 50.97 51.96 54.24 55.36 56.54 57.25 58.29 57.26 55.96 57.25 58.31 59.99 61.43 64.15 66.12 67.08 68.20 68.78 69.76 69.93 70.07 70.60 71.08 71.64 71.87 72.11 71.68 70.20 70.73 68.58 66.71
38.63 36.68 36.52 30.45 28.49 31.66 30.21 30.11 42.83 43.14 42.95 44.04 44.53 45.67 46.69 48.16 49.11 49.70 50.37 51.87 54.01 54.21 54.57 55.58 56.73 58.13 57.09 56.89 57.58 59.07 61.55 63.64 64.87 65.86 67.20 68.49 68.93 69.99 70.13 70.49 70.99 71.61 71.79 71.84 70.55 69.30 68.51 66.47 65.68
MSLP
1011.20 1010.84 1010.91 1010.76 1010.38 1009.65 1008.83 1008.44 1008.32 1007.81 1007.13 1006.64 1006.38 1006.31 1005.60 1004.96 1004.09 1003.56 1003.73 1004.22 1004.89 1005.10 1006.55 1007.82 1008.52 1008.98 1009.25 1009.52 1009.71 1010.13 1010.43 1010.89 1011.31 1011.58 1011.96 1012.32 1012.76 1013.05 1013.28 1013.53 1013.81 1014.07 1014.27 1014.50 1014.67 1014.85 1015.11 1015.38 1015.64
1010.94 1010.76 1010.80 1010.85 1009.85 1009.12 1008.51 1008.47 1007.79 1007.32 1007.12 1006.76 1006.10 1005.87 1005.61 1004.49 1004.37 1003.31 1003.57 1004.45 1004.92 1005.31 1006.24 1007.50 1008.51 1008.99 1009.15 1009.43 1009.63 1010.01 1010.41 1010.83 1011.24 1011.61 1011.89 1012.24 1012.60 1012.99 1013.31 1013.63 1013.98 1014.22 1014.41 1014.64 1014.69 1014.78 1014.98 1015.26 1015.60
1010.71 1010.81 1010.80 1010.58 1009.81 1008.89 1008.31 1008.08 1007.49 1007.29 1007.27 1006.99 1006.14 1005.69 1005.30 1005.09 1004.84 1003.90 1003.94 1003.92 1004.76 1005.67 1006.57 1007.27 1008.46 1009.11 1009.27 1009.45 1009.65 1010.02 1010.32 1010.63 1011.15 1011.55 1011.83 1012.21 1012.51 1012.98 1013.41 1013.74 1014.00 1014.31 1014.55 1014.70 1014.90 1014.94 1015.14 1015.34 1015.58
1010.61 1010.73 1011.28 1010.70 1009.45 1009.12 1008.48 1008.07 1007.78 1007.44 1006.83 1006.78 1006.28 1005.56 1005.08 1005.16 1005.08 1004.45 1004.35 1004.65 1004.35 1005.51 1006.48 1007.40 1008.38 1009.03 1009.41 1009.51 1009.60 1009.79 1010.17 1010.45 1010.97 1011.42 1011.83 1012.27 1012.56 1012.99 1013.39 1013.64 1014.09 1014.35 1014.63 1014.76 1015.07 1015.28 1015.32 1015.42 1015.47
1010.70 1010.31 1010.30 1010.04 1009.66 1009.46 1008.70 1008.13 1007.76 1007.34 1006.93 1006.37 1006.44 1005.50 1005.25 1004.94 1004.69 1004.57 1004.19 1004.57 1004.12 1005.30 1006.13 1007.04 1008.06 1008.77 1009.39 1009.66 1009.84 1009.87 1010.27 1010.45 1010.84 1011.34 1011.96 1012.36 1012.67 1013.09 1013.52 1013.81 1014.13 1014.34 1014.58 1014.85 1015.10 1015.34 1015.40 1015.50 1015.67
1010.24 1010.08 1009.88 1009.43 1009.37 1009.38 1008.86 1008.14 1007.95 1007.36 1006.74 1006.30 1006.14 1005.83 1005.28 1005.19 1004.92 1004.78 1004.66 1004.74 1004.91 1005.23 1006.15 1006.90 1008.13 1008.83 1009.50 1010.00 1010.18 1010.19 1010.34 1010.48 1010.74 1011.21 1011.72 1012.28 1012.69 1013.06 1013.47 1013.77 1014.11 1014.29 1014.41 1014.76 1015.02 1015.35 1015.42 1015.63 1015.78
1009.61 1009.54 1009.04 1009.04 1009.25 1009.04 1008.46 1008.06 1007.90 1007.37 1006.78 1006.19 1006.27 1005.89 1005.60 1005.15 1005.39 1005.21 1005.29 1005.51 1005.68 1005.76 1006.11 1006.74 1007.62 1008.69 1009.40 1009.96 1010.31 1010.37 1010.52 1010.63 1010.77 1011.17 1011.62 1012.09 1012.61 1012.95 1013.35 1013.73 1014.12 1014.41 1014.53 1014.72 1014.76 1015.04 1015.35 1015.50 1015.76
1009.69 1009.48 1008.80 1008.85 1008.73 1008.32 1008.31 1008.05 1008.00 1007.50 1006.64 1006.46 1006.41 1005.89 1005.76 1005.67 1005.91 1005.67 1005.64 1006.03 1006.30 1006.48 1006.40 1006.70 1007.47 1008.40 1009.16 1009.68 1010.28 1010.56 1010.71 1010.95 1011.05 1011.34 1011.58 1012.02 1012.62 1012.91 1013.33 1013.70 1014.03 1014.37 1014.72 1015.02 1014.98 1015.09 1015.23 1015.37 1015.59
1009.95 1009.33 1008.31 1008.46 1008.47 1007.83 1007.81 1007.76 1007.93 1007.78 1007.02 1006.59 1006.48 1006.29 1006.19 1006.12 1006.06 1005.72 1005.80 1005.97 1006.62 1006.97 1006.90 1007.13 1007.58 1008.06 1008.73 1009.23 1009.83 1010.58 1010.97 1011.15 1011.33 1011.75 1012.05 1012.44 1012.58 1013.07 1013.35 1013.69 1013.97 1014.36 1014.60 1015.06 1015.28 1015.32 1015.46 1015.38 1015.48
1009.49 1008.70 1008.07 1008.14 1008.06 1007.50 1007.69 1007.85 1007.95 1007.89 1007.23 1006.52 1006.21 1006.25 1006.31 1005.75 1005.73 1005.79 1005.68 1005.49 1006.08 1006.57 1007.18 1007.36 1007.87 1008.20 1008.74 1009.21 1009.67 1010.20 1010.62 1010.95 1011.23 1011.63 1012.02 1012.38 1012.50 1012.82 1013.14 1013.58 1014.14 1014.41 1014.64 1014.97 1015.18 1015.43 1015.55 1015.53 1014.94
1009.53 1008.43 1008.49 1008.29 1008.42 1008.15 1007.84 1007.37 1008.37 1007.85 1007.16 1006.77 1006.19 1005.85 1005.60 1005.49 1005.21 1005.34 1005.48 1005.48 1005.63 1006.30 1006.81 1007.41 1007.93 1008.27 1008.79 1009.09 1009.55 1010.03 1010.48 1010.68 1011.09 1011.47 1011.85 1012.23 1012.57 1012.92 1013.06 1013.28 1013.63 1013.94 1014.36 1014.32 1014.60 1014.82 1015.02 1014.81 1014.79
1009.79 1009.26 1008.92 1008.63 1008.57 1008.42 1008.18 1007.75 1007.94 1007.84 1007.42 1007.26 1006.41 1006.06 1005.64 1005.40 1005.08 1004.96 1005.26 1005.19 1005.66 1005.92 1006.58 1007.20 1007.81 1008.07 1008.62 1009.03 1009.48 1009.61 1010.01 1010.52 1010.79 1011.13 1011.64 1012.10 1012.53 1012.57 1012.91 1013.06 1013.25 1013.54 1013.67 1014.06 1014.25 1014.10 1014.37 1014.58 1014.87
1009.82 1009.55 1009.21 1008.90 1008.89 1008.79 1008.61 1007.60 1007.59 1007.47 1007.53 1007.37 1006.65 1005.84 1005.52 1005.15 1004.89 1004.62 1004.85 1005.28 1005.13 1005.79 1006.05 1006.70 1007.41 1007.63 1008.19 1008.92 1009.25 1009.48 1009.60 1009.85 1010.08 1010.81 1011.13 1011.49 1011.83 1012.02 1012.41 1012.66 1012.86 1012.95 1013.17 1013.43 1013.72 1013.86 1014.24 1014.23 1014.42
1010.02 1009.91 1009.41 1009.05 1008.70 1008.58 1008.11 1007.41 1008.25 1007.56 1007.53 1007.34 1006.79 1005.78 1005.34 1005.01 1004.74 1004.55 1004.60 1005.08 1005.28 1005.22 1005.36 1006.09 1006.28 1007.12 1007.82 1008.40 1008.85 1009.15 1009.23 1009.43 1009.54 1009.97 1010.52 1010.89 1011.05 1011.52 1011.78 1012.02 1012.45 1012.36 1012.59 1012.91 1013.18 1013.45 1013.85 1013.94 1013.90
1010.25 1009.95 1009.33 1008.85 1008.71 1008.52 1008.31 1007.85 1007.90 1007.97 1007.69 1007.34 1006.77 1006.03 1005.74 1005.30 1004.91 1004.90 1004.85 1004.91 1005.18 1004.82 1005.59 1005.28 1005.97 1006.58 1006.72 1007.47 1008.26 1008.77 1009.09 1009.17 1009.29 1009.93 1009.98 1010.54 1010.89 1011.03 1011.47 1011.86 1011.98 1012.36 1012.71 1013.07 1013.11 1013.11 1013.24 1013.54 1013.61
1010.36 1010.19 1009.33 1009.01 1008.77 1008.81 1008.76 1007.81 1008.04 1008.16 1008.08 1007.63 1007.13 1006.40 1006.02 1005.50 1005.23 1004.91 1004.78 1004.88 1005.32 1005.20 1005.11 1004.94 1005.21 1005.94 1006.91 1007.08 1007.13 1007.61 1008.59 1008.76 1008.77 1009.10 1009.63 1009.83 1010.24 1010.70 1010.82 1010.59 1010.99 1011.10 1012.04 1012.67 1012.77 1012.76 1012.80 1013.05 1013.03
1010.42 1009.59 1009.48 1008.94 1009.15 1009.21 1009.12 1008.25 1008.09 1008.46 1008.71 1007.87 1007.35 1006.62 1006.27 1005.77 1005.31 1005.08 1005.06 1004.88 1004.94 1005.26 1005.04 1004.76 1005.42 1004.77 1006.16 1006.78 1007.10 1007.80 1007.71 1007.94 1007.79 1008.21 1008.77 1009.03 1009.17 1009.63 1009.78 1009.93 1010.84 1011.44 1011.07 1012.04 1012.48 1012.40 1012.35 1012.31 1012.62
1010.05 1009.99 1009.86 1009.28 1009.22 1009.13 1008.77 1008.57 1008.54 1008.41 1008.71 1008.18 1007.14 1006.51 1006.31 1006.02 1005.49 1005.33 1005.03 1005.02 1005.02 1005.18 1005.19 1004.94 1004.43 1004.83 1005.98 1007.31 1006.53 1006.68 1007.79 1007.41 1007.13 1007.09 1007.71 1008.40 1008.07 1008.64 1009.38 1009.52 1010.67 1010.75 1010.11 1011.26 1011.52 1011.94 1012.02 1011.97 1012.02
1010.42 1010.42 1010.22 1010.07 1009.89 1009.75 1008.82 1008.07 1007.50 1007.92 1007.78 1007.36 1006.90 1006.66 1006.48 1006.23 1005.69 1005.62 1005.23 1005.19 1005.06 1004.91 1005.48 1005.50 1005.80 1006.04 1006.34 1006.28 1005.51 1005.50 1006.08 1006.60 1006.48 1006.65 1007.06 1007.67 1006.87 1008.07 1008.80 1009.39 1009.98 1011.49 1010.86 1010.07 1010.68 1011.31 1011.71 1011.72 1012.05
1010.49 1010.42 1010.39 1010.44 1010.40 1010.39 1009.08 1008.13 1007.51 1006.80 1006.79 1006.75 1006.62 1006.65 1006.58 1006.40 1006.25 1006.01 1005.63 1005.10 1005.00 1004.90 1005.17 1005.47 1005.26 1005.15 1005.12 1004.90 1004.98 1005.33 1005.81 1005.01 1005.15 1005.59 1006.00 1006.50 1007.05 1007.21 1007.86 1008.36 1008.75 1009.39 1010.24 1009.89 1010.04 1010.85 1011.00 1011.09 1011.73
1010.41 1010.45 1010.62 1010.70 1010.60 1010.07 1009.40 1007.33 1006.91 1006.40 1006.60 1006.57 1006.63 1006.56 1006.55 1006.50 1006.48 1006.33 1006.16 1005.81 1005.27 1004.90 1005.06 1005.12 1005.18 1005.20 1005.13 1004.68 1004.61 1004.67 1004.62 1004.84 1004.80 1004.65 1004.88 1005.39 1005.57 1005.98 1006.93 1007.27 1007.72 1008.75 1008.76 1008.67 1009.17 1009.94 1010.12 1010.11 1011.13
1010.28 1010.60 1010.91 1010.94 1010.70 1009.82 1009.80 1007.83 1007.14 1006.75 1006.16 1006.23 1006.10 1006.04 1006.04 1005.94 1006.22 1006.55 1006.38 1005.96 1005.80 1005.52 1005.22 1004.93 1004.69 1004.61 1004.76 1004.58 1004.20 1003.87 1003.36 1003.75 1003.37 1002.67 1003.05 1004.03 1004.84 1005.52 1006.42 1005.95 1007.05 1007.64 1007.99 1007.79 1008.20 1008.92 1009.12 1009.64 1010.06
1010.45 1010.93 1011.13 1011.15 1010.89 1010.61 1009.39 1008.86 1006.96 1006.95 1006.18 1006.06 1006.00 1005.86 1005.84 1005.97 1006.18 1006.23 1006.42 1006.53 1006.11 1005.90 1005.63 1005.20 1004.51 1004.15 1004.27 1004.45 1004.00 1003.46 1003.26 1002.78 1002.82 1002.54 1002.68 1003.54 1004.52 1004.94 1004.74 1005.41 1006.03 1006.36 1007.09 1007.19 1007.08 1008.10 1008.54 1008.79 1009.35
1010.89 1011.00 1011.19 1011.43 1011.11 1010.09 1009.37 1008.92 1006.41 1005.92 1005.71 1005.88 1005.78 1005.89 1006.07 1005.87 1006.05 1006.16 1006.06 1006.09 1005.91 1005.56 1005.46 1005.13 1004.39 1003.83 1003.60 1003.46 1003.60 1003.19 1002.71 1002.54 1002.33 1002.60 1002.50 1002.92 1003.50 1004.07 1004.25 1004.43 1005.01 1005.72 1005.65 1006.51 1006.33 1007.22 1007.81 1008.19 1008.62
1010.93 1011.18 1010.73 1010.69 1010.41 1009.61 1009.67 1008.68 1006.08 1005.89 1005.86 1005.62 1005.48 1005.58 1005.93 1006.21 1006.19 1005.98 1005.65 1005.43 1005.39 1005.12 1004.86 1004.72 1004.38 1003.75 1003.32 1003.02 1002.71 1002.50 1002.51 1002.33 1002.05 1001.84 1002.30 1002.56 1003.07 1003.21 1003.45 1003.74 1004.26 1004.27 1004.78 1005.60 1005.80 1006.65 1007.14 1007.56 1008.15
1010.97 1011.39 1011.43 1011.12 1010.70 1009.90 1009.79 1007.42 1005.36 1005.75 1005.88 1005.75 1005.59 1005.52 1005.73 1005.85 1006.03 1005.98 1005.63 1005.35 1005.00 1004.77 1004.60 1004.30 1004.03 1003.74 1003.34 1002.80 1002.13 1001.69 1001.57 1001.16 1001.13 1001.26 1001.29 1001.63 1002.08 1002.22 1002.56 1003.01 1003.34 1003.69 1004.23 1004.77 1005.28 1006.07 1006.50 1007.00 1007.70
1011.37 1011.66 1012.31 1012.12 1011.84 1010.91 1008.51 1006.69 1006.02 1005.42 1005.35 1005.29 1005.26 1005.57 1005.74 1005.81 1005.71 1005.50 1005.27 1005.11 1004.79 1004.39 1003.93 1003.79 1003.54 1003.01 1002.72 1002.26 1001.88 1001.44 1000.95 1000.55 999.95 999.91 1000.16 1000.45 1000.97 1001.24 1001.82 1002.34 1002.84 1003.23 1003.72 1003.92 1004.77 1005.39 1006.03 1006.56 1007.16
1010.97 1011.61 1012.48 1012.68 1011.74 1010.10 1007.80 1006.52 1005.10 1005.02 1005.09 1004.94 1005.17 1005.28 1005.45 1005.51 1005.23 1004.87 1004.87 1004.86 1004.62 1004.17 1003.63 1003.10 1002.97 1002.58 1002.04 1001.48 1001.01 1000.38 1000.10 999.80 999.43 999.33 999.32 999.50 1000.07 1000.58 1001.13 1001.63 1002.10 1002.78 1002.72 1003.63 1004.46 1005.03 1005.58 1006.12 1006.77
1011.42 1011.59 1012.26 1012.63 1012.26 1010.68 1008.40 1005.59 1005.34 1005.13 1005.22 1005.13 1005.19 1005.40 1005.40 1005.05 1004.79 1004.67 1004.31 1004.23 1003.90 1003.56 1003.06 1002.45 1001.93 1001.81 1001.45 1000.94 1000.36 999.91 999.32 998.95 998.62 998.36 998.46 998.91 999.60 999.93 1000.39 1000.89 1001.38 1001.57 1002.38 1003.35 1004.02 1004.71 1005.11 1005.76 1006.36
1011.05 1011.18 1011.68 1011.99 1011.82 1011.22 1010.06 1005.41 1005.36 1005.16 1005.47 1005.41 1004.98 1004.78 1004.90 1005.04 1004.67 1004.37 1003.87 1003.45 1003.18 1002.82 1002.42 1001.91 1001.37 1000.97 1000.69 1000.17 999.77 999.20 998.55 998.23 998.05 997.85 997.73 998.53 998.76 999.12 999.46 1000.15 1000.73 1001.18 1002.15 1002.94 1003.59 1004.15 1004.91 1005.31 1006.05
Wind_Speed
5 4 2 3 4 1 3 4 1 4 2 2 5 7 7 11 6 4 3 17 17 24 24 24 23 21 20 20 20 19 20 20 19 19 18 18 16 16 15 14 13 13 13 12 12 11 10 10 10
4 2 2 1 4 6 5 2 8 6 4 11 7 3 7 10 12 17 3 15 21 23 21 23 24 22 22 21 21 20 20 20 19 19 19 18 17 16 15 14 13 13 13 12 12 12 11 11 11
1 3 1 3 3 7 2 6 6 4 8 4 3 4 5 6 10 8 11 21 21 22 21 22 24 21 21 22 22 21 21 21 19 19 19 18 17 16 15 14 13 13 13 12 11 12 11 11 11
2 3 3 3 11 3 3 1 6 8 4 4 4 9 5 4 18 12 7 17 24 22 22 23 23 22 21 21 22 22 22 22 21 19 18 17 17 16 14 14 12 12 12 12 11 10 10 10 11
1 2 4 4 5 3 4 6 6 8 7 7 6 9 7 11 23 9 10 18 25 23 21 23 24 22 21 21 20 21 21 21 21 20 18 17 17 15 14 13 13 12 11 11 10 10 9 8 9
4 1 6 9 8 2 5 1 5 2 5 9 8 14 3 14 16 9 6 16 19 22 21 21 21 20 19 19 19 19 20 21 21 20 19 18 17 16 15 13 12 12 12 11 11 10 9 8 7
5 4 12 13 5 3 3 2 3 3 8 3 11 10 6 17 13 7 4 9 15 19 20 19 21 18 18 17 17 17 17 19 19 19 18 17 16 16 14 13 12 12 11 11 12 11 10 9 8
3 4 11 9 10 8 4 1 3 6 9 8 6 5 11 15 7 4 7 8 12 13 17 19 18 18 17 16 15 14 14 14 15 16 16 15 14 14 14 12 12 12 10 10 10 11 10 9 8
3 8 11 16 10 5 4 4 3 3 9 6 3 7 11 9 4 1 5 8 9 10 13 14 16 16 16 16 15 12 13 12 11 12 12 11 10 12 12 12 10 11 11 10 9 10 10 9 9
8 9 15 5 7 8 6 2 7 7 8 12 11 8 11 13 4 5 6 10 11 14 13 13 14 15 14 11 13 14 13 11 11 11 11 9 9 9 9 8 10 9 9 9 10 9 10 10 7
5 12 6 9 4 4 11 8 5 8 13 6 14 17 18 13 9 5 5 11 13 13 12 12 12 12 14 12 9 7 7 8 8 12 10 10 7 7 7 6 7 7 10 8 10 10 9 10 7
8 5 6 11 5 4 3 4 10 12 16 13 17 15 11 14 11 8 7 9 11 16 13 13 12 12 12 9 9 10 9 9 8 10 12 8 6 7 7 6 7 7 6 8 8 6 8 9 9
6 2 2 3 6 6 6 14 19 15 9 14 10 15 16 15 13 10 5 8 8 12 15 14 12 12 12 12 9 9 10 10 11 10 12 10 9 8 8 7 7 8 7 8 8 8 8 8 9
2 4 6 5 8 7 7 16 7 3 9 12 12 14 12 12 12 11 6 6 8 9 13 12 20 15 14 12 11 9 9 9 10 10 9 12 9 8 8 8 9 9 8 8 8 7 7 7 8
1 5 6 7 4 6 7 12 10 5 5 5 5 7 7 7 8 7 8 7 7 7 6 12 13 12 17 17 12 10 9 9 9 8 10 11 10 10 9 8 8 8 6 8 8 8 7 7 8
1 2 3 5 3 1 6 8 2 9 10 9 9 5 9 11 10 9 10 7 6 7 9 9 12 14 13 12 12 11 10 10 8 9 9 12 12 11 11 10 10 9 7 7 8 7 7 8 8
2 1 1 1 5 5 3 6 4 6 7 9 9 7 7 10 11 9 10 10 10 6 5 8 10 12 14 12 9 8 12 10 10 9 10 12 13 15 12 9 7 9 7 7 8 7 8 7 7
2 2 1 4 4 9 12 11 11 13 8 9 10 8 5 7 11 12 11 11 11 9 7 5 4 6 8 7 8 9 9 9 9 9 10 11 10 13 10 7 6 11 7 8 7 9 7 6 7
3 3 3 3 1 11 13 18 18 14 13 11 9 7 6 8 9 10 12 10 10 8 8 6 7 12 11 11 5 7 11 10 10 10 11 11 11 11 12 8 8 7 7 9 9 8 9 7 5
5 4 3 5 5 8 15 19 20 18 13 12 9 6 9 7 9 10 11 11 10 10 10 7 5 7 9 9 9 9 10 11 11 9 10 12 12 11 11 10 8 8 11 11 9 10 7 7 7
5 5 3 5 5 9 10 11 1 8 3 5 8 9 9 9 7 8 10 12 13 12 11 12 8 6 8 12 9 8 5 7 10 10 10 10 11 12 15 14 10 12 11 9 11 11 12 7 7
5 7 3 5 8 7 4 6 8 2 7 4 5 6 8 12 8 7 9 10 11 13 14 13 12 9 5 9 11 14 12 12 12 12 11 9 13 14 16 12 13 12 10 10 10 10 10 9 8
0 4 3 6 9 6 6 7 1 6 6 3 9 10 9 5 6 7 8 8 12 11 11 13 13 12 9 6 10 11 14 11 10 9 9 9 10 15 14 15 15 12 11 11 11 11 12 9 8
3 1 3 1 3 6 0 5 3 6 6 4 9 6 7 5 6 8 9 9 10 11 10 12 13 14 12 9 8 13 14 14 12 13 11 11 9 9 13 15 13 14 11 13 10 11 12 11 10
2 3 5 3 4 4 1 10 10 9 9 13 13 10 4 6 8 11 15 15 14 13 13 11 11 15 14 13 11 9 14 15 16 14 11 10 8 9 13 15 14 12 12 12 10 11 11 11 11
4 3 4 5 4 7 5 12 3 1 5 11 10 11 10 10 11 13 16 14 13 14 14 14 14 13 14 13 15 11 12 10 11 13 11 9 10 11 10 13 13 13 13 11 10 8 9 10 11
6 5 2 4 5 7 8 11 14 11 8 7 10 7 8 12 15 15 16 14 12 14 16 14 15 16 15 14 13 12 12 13 12 14 12 11 10 11 11 13 12 13 12 11 11 8 10 10 10
6 9 4 3 5 6 7 16 13 13 11 12 6 6 8 13 16 16 13 12 12 13 15 15 14 17 17 16 13 13 13 13 14 13 14 12 11 12 11 12 12 13 11 11 12 10 10 10 7
6 5 2 2 5 6 9 7 2 11 12 11 10 9 14 17 15 15 15 12 12 12 13 14 15 16 15 16 15 15 14 14 13 13 13 13 12 13 13 13 13 12 12 13 12 10 10 10 9
3 9 10 8 6 6 5 16 10 12 5 11 20 21 17 16 16 16 17 16 14 13 14 14 14 15 15 15 15 16 15 13 13 14 14 14 14 12 13 13 12 12 13 14 13 11 10 10 9
Wind_Direction
322 16 68 288 206 239 235 221 121 206 246 205 281 280 268 286 217 223 39 178 163 152 160 168 169 172 167 160 152 149 145 144 145 146 146 145 146 147 147 151 154 152 148 146 139 132 126 124 116
342 93 90 313 223 219 214 234 208 209 301 312 288 245 268 273 245 269 234 169 164 156 158 168 171 176 169 165 158 154 150 149 150 151 149 151 152 152 154 156 156 156 154 150 146 140 136 133 131
31 44 187 273 192 227 211 212 234 192 305 253 292 281 283 336 334 284 329 160 158 162 163 164 171 177 174 171 163 159 158 154 155 155 154 157 156 157 160 162 160 161 161 158 152 147 146 141 133
152 149 116 236 237 202 222 242 229 301 322 230 325 297 294 76 329 303 300 171 153 162 168 158 169 176 181 177 169 164 163 159 159 160 160 162 161 164 166 161 164 165 166 162 160 156 153 146 135
80 123 227 237 269 304 248 280 269 299 287 289 331 316 297 331 333 309 187 177 161 164 169 163 170 176 182 181 177 168 167 163 163 162 166 168 167 168 168 166 170 172 170 170 165 165 160 150 148
179 199 217 236 246 243 276 275 293 322 296 309 341 326 332 344 351 2 177 178 169 162 167 165 169 176 182 184 183 175 173 170 166 166 169 172 173 171 171 173 178 179 174 175 170 171 164 162 162
218 201 234 249 198 254 240 26 298 320 315 322 337 313 322 353 354 31 113 176 175 167 167 169 174 180 182 184 187 181 180 176 169 170 171 174 176 174 175 178 183 184 182 183 175 174 175 172 176
215 221 230 235 227 228 214 246 299 279 298 320 336 349 335 343 350 54 110 146 175 179 174 170 175 181 189 187 187 188 183 182 171 173 173 174 179 178 180 180 186 187 188 195 182 182 182 178 184
170 227 232 233 207 206 163 242 286 293 289 291 281 307 327 346 319 42 152 155 177 187 179 179 176 180 190 192 188 186 186 181 172 180 177 169 190 189 185 198 180 192 189 197 195 191 194 187 195
205 226 225 219 224 198 198 201 292 290 297 290 282 292 319 318 329 270 230 190 200 199 196 185 185 181 190 193 194 195 193 194 192 192 189 198 196 197 200 195 196 197 197 200 201 201 202 204 215
187 235 223 220 245 280 281 230 254 275 282 277 310 323 327 328 335 284 250 240 203 211 202 195 189 184 196 195 192 192 196 190 192 196 193 200 194 204 200 198 196 206 201 212 201 204 222 221 227
231 231 242 252 280 310 262 316 253 254 267 291 298 303 307 318 321 333 261 241 211 198 205 202 197 191 194 203 200 198 195 196 197 197 193 197 193 199 207 210 205 203 206 218 220 217 227 225 235
221 232 289 285 292 268 275 252 249 276 284 288 296 301 301 301 301 315 285 229 205 213 202 200 192 191 194 201 206 207 205 196 198 199 197 195 202 200 202 210 212 211 208 212 218 223 224 226 232
171 261 271 275 257 251 255 263 277 229 314 296 294 296 295 292 309 317 334 302 234 228 212 205 193 193 192 204 209 216 209 208 200 201 200 205 207 211 210 205 218 218 212 215 222 218 225 230 234
263 272 281 246 261 253 268 267 253 19 341 291 355 331 337 347 345 350 333 327 289 254 261 206 203 204 190 197 198 213 217 215 210 220 201 206 214 211 218 225 219 233 229 229 221 220 219 231 233
222 194 219 115 5 359 215 254 135 31 6 330 322 328 324 327 329 338 336 345 356 286 246 218 199 194 216 216 198 192 207 210 203 214 216 206 209 211 211 213 218 204 207 229 230 223 221 230 233
33 163 321 65 69 356 339 296 274 355 349 313 304 312 316 315 320 333 337 345 352 347 261 243 195 176 211 209 198 214 200 208 207 202 216 210 201 216 209 206 208 211 195 216 234 229 224 224 235
140 144 274 306 22 330 304 282 294 299 276 268 286 298 308 307 306 320 329 338 340 359 1 276 253 246 221 245 190 191 224 227 213 208 210 205 208 218 218 198 203 219 184 207 210 228 218 233 238
174 190 221 278 266 327 299 299 299 285 274 266 256 270 287 287 291 309 317 328 339 349 4 347 231 216 207 202 209 225 215 221 219 224 222 218 206 208 191 185 164 224 243 211 194 212 226 223 219
191 204 221 275 260 293 296 296 286 283 265 255 219 244 273 278 276 293 310 321 330 328 333 339 333 287 233 219 210 221 231 216 213 217 222 214 202 191 190 192 213 189 217 207 193 201 211 225 195
206 222 214 279 299 272 297 290 59 329 193 213 262 278 291 279 269 291 304 315 323 329 333 324 321 297 263 234 222 216 238 242 214 217 217 217 199 188 198 195 187 200 211 201 195 202 210 216 199
242 206 230 281 310 307 347 297 267 153 308 243 300 302 301 299 276 279 305 320 327 322 320 317 317 310 284 251 233 224 214 230 228 213 210 217 199 197 208 192 203 205 209 202 196 201 210 210 209
318 164 280 289 288 291 254 256 175 221 222 181 325 317 300 297 306 306 318 315 309 315 314 310 310 305 303 259 240 228 228 221 240 244 235 216 206 206 203 203 202 198 209 208 192 196 204 202 211
100 253 286 168 252 244 148 258 196 208 203 267 310 287 286 306 321 325 316 313 308 312 309 311 310 300 304 305 267 235 233 228 225 228 235 242 237 224 215 206 203 205 198 210 192 201 201 201 208
130 314 300 237 216 310 131 286 258 229 252 289 295 286 312 331 319 327 326 324 324 323 319 315 311 298 298 300 289 262 237 230 227 223 222 217 215 214 213 203 202 199 193 204 188 193 199 198 206
192 250 268 285 262 296 258 252 239 64 286 284 285 283 300 318 334 321 321 311 313 319 314 308 304 289 284 290 289 283 264 242 226 223 220 214 217 224 207 204 201 195 189 186 178 192 200 197 206
150 210 25 277 252 267 239 258 272 277 296 286 300 297 298 335 327 327 324 306 306 313 311 307 303 294 281 273 279 271 260 244 233 228 215 214 212 225 206 195 190 191 185 169 175 190 190 193 196
246 142 177 190 256 257 254 270 265 300 312 308 324 312 323 327 328 331 329 305 301 306 307 309 304 294 287 280 273 269 263 248 235 225 225 216 209 209 194 187 185 185 164 171 178 180 184 187 183
176 198 152 286 248 269 299 273 6 305 318 317 321 322 318 319 322 317 320 303 294 299 305 312 313 302 287 280 274 268 262 249 241 230 224 222 208 197 196 188 183 168 168 175 175 178 174 186 170
265 247 234 233 207 237 291 274 289 281 322 316 308 304 309 305 311 313 314 302 294 295 300 309 316 310 291 283 277 266 263 254 237 226 219 213 207 196 187 185 183 169 173 173 173 173 177 166 173